Location: Warwick
(41.7000°N, 71.4170°W)
Time: 16:03:37
(UTC-05:00)

BREEZE-M DEB (TANK) - Visible Passes

Search period start: 14 February 2016 00:00
Search period end: 24 February 2016 00:00
Orbit: 301 x 15919 km, 49.5° (Epoch: 13 February)

Date Brightness Start Highest point End Pass type
(mag) Time Alt. Az. Time Alt. Az. Time Alt. Az.
14 Feb 9.3 03:01:38 10° SE 04:45:28 41° E 06:00:18 10° NE visible
15 Feb 9.2 03:05:25 10° SSE 04:50:55 43° E 06:07:57 10° NE visible
16 Feb 9.1 03:09:34 10° SSE 04:56:26 46° E 06:15:29 10° NE visible
17 Feb 9.0 03:14:02 10° SSE 05:02:02 49° E 06:22:57 10° NE visible
18 Feb 9.0 03:18:45 10° SSE 05:07:42 52° E 06:30:19 10° NE visible
19 Feb 8.9 03:23:43 10° SSE 05:13:28 55° E 06:37:37 10° NE visible
20 Feb 8.9 03:28:51 10° SSE 05:19:21 58° E 06:44:51 10° NE visible
21 Feb 8.8 03:34:09 10° S 05:25:21 60° ESE 06:52:02 10° NE visible
22 Feb 8.8 03:39:36 10° S 05:31:29 63° ESE 06:59:09 10° NE visible
23 Feb 8.8 03:45:10 10° S 05:37:46 66° ESE 07:06:13 10° ENE visible
